SCP
0 0 0 0 0 0 0 0 0 0 0 0 0 0 0 0 0 0 0 0 0 0 0 0 0 0 0 0 0 0 0 0 0 0 0 0 0 0 0 0 0 0 0
0 0 0 0 0 0 0 0 0 0 0 0 0 0 0 0 0 0 0 0 0 0 0 0 0 0 0 0 0 0 0 0 0 0 0 0 0 0 0 0 0 0 0
0 0 0 0 0 0 0 0 0 0 0 0 0 0 0 0 0 0 0 0 0 0 0 0 0 0 0 0 0 0 0 0 0 0 0 0 0 0 0 0 0 0 0
0 0 0 0 0 0 0 0 0 0 0 0 0 0 0 0 0 0 0 0 0 0 0 0 0 0 0 0 0 0 0 0 0 0 0 0 0 0 0 0 0 0 0
0 0 0 0 0 0 0 0 0 0 0 0 0 0 0 0 0 0 0 0 0 0 0 0 0 0 0 0 0 0 0 0 0 0 0 0 0 0 0 0 0 0 0
0 0 0 0 0 0 0 0 0 0 0 0 0 0 0 0 0 0 0 0 0 0 0 0 0 0 0 0 0 0 0 0 0 0 0 0 0 0 0 0 0 0 0
0 0 0 0 0 0 0 0 0 0 0 0 0 0 0 0 0 0 0 0 0 0 0 0 0 0 0 0 0 0 0 0 0 0 0 0 0 0 0 0 0 0 0
0 0 0 0 0 0 0 0 0 0 0 0 0 0 0 0 0 0 0 0 0 0 0 0 0 0 0 0 0 0 0 0 0 0 0 0 0 0 0 0 0 0 0
0 0 -0 0 0 0 0 0 0 0 0 0 0 0 0 0 0 0 0 0 0 0 0 0 0 0 0 0 0 0 0 0 0 0 0 0 0 0 0 0 0 0 0
0 0 0 0 0 0 0 0 0 0 0 0 0 0 0 0 0 0 0 0 0 0 0 0 0 0 0 0 0 0 0 0 0 0 0 0 0 0 0 0 0 0 0
0 0 0 0 0 0 0 0 0 0 0 0 0 0 0 0 0 0 0 0 0 0 0 0 0 0 0 0 0 0 0 0 0 0 0 0 0 0 0 0 0 0 0
0 0 0 0 0 0 0 0 0 0 0 0 0 0 0 0 0 0 0 0 0 0 0 0 0 0 0 0 0 0 0 0 0 0 0 0 0 0 0 0 0 0 0
0 0 0 0 0 0 0 0 0 0 0 0 0 0 0 0 0 0 0 0 0 0 0 0 0 0 0 0 0 0 0 0 0 0 0 0 0 0 0 0 0 0 0
0 0 0 0 0 0 0 0 0 0 0 0 0 0 0 0 0 0 0 0 0 0 0 0 0 0 0 0 0 0 0 0 0 0 0 0 0 0 0 0 0 0 0
0 0 0 0 0 0 0 0 0 0 0 0 0 0 0 0 0 0 0 0 0 0 0 0 0 0 0 0 0 0 0 0 0 0 0 0 0 0 0 0 0 0 0
0 0 0 0 0 0 0 0 0 0 0 0 0 0 0 0 0 0 0 0 0 0 0 0 0 0 0 0 0 0 0 0 0 0 0 0 0 0 0 0 0 0 0
0 0 0 0 0 0 0 0 0 0 0 0 0 0 0 0 0 0 0 0 0 0 0 0 0 0 0 0 0 0 0 0 0 0 0 0 0 0 0 0 0 0 0
-0 -0 -0 -0 -0 -0 -0 0 0 0 0 0 0 0 0 0 0 0 0 0 -0 -0 -0 0 0 0 0 0 0 0 0 0 0 0 0 0 0 0 0 0 0 0 0
0 0 0 0 0 0 0 0 0 0 0 0 0 0 0 0 0 0 0 -0 -0 -0 -0 -0 0 0 0 0 0 0 0 0 0 0 0 0 0 0 0 0 0 0 0
0 0 0 0 0 0 0 -0 -0 -0 -0 -0 -0 -0 -0 -0 -0 -0 -0 -0 -0 -0 -0 -0 -0 0 0 0 0 0 0 0 0 0 0 0 0 0 0 0 0 0 0
-0 -0 -0 -0 -0 -0 -0 -0 -0 -0 -0 -0 -0 -0 -0 -0 -0 -0 -0 -0 -0 -0 0 0 0 0 0 0 0 0 0 0 0 0 0 0 0 0 0 0 0 0 0
-0 -0 -0 -0 -0 -0 -0 -0 -0 -0 -0 -0 -0 -0 -0 -0 -0 -0 0 0 0 0 0 0 0 0 0 0 0 0 0 0 0 0 0 0 0 0 0 0 0 0 0
-0 -0 -0 -0 -0 -0 -0 -0 -0 -0 -0 -0 -0 -0 -0 -0 0 0 0 0 0 0 0 0 0 0 0 0 0 0 0 0 0 0 0 0 0 0 0 0 0 0 0
-0 -0 -0 -0 -0 -0 0 0 0 0 0 0 0 0 0 0 0 0 0 0 0 0 0 0 0 0 0 0 0 0 0 0 0 0 0 0 0 0 0 0 0 0 0
0 0 -0 0 0 0 0 0 0 0 0 0 0 0 0 0 0 0 0 0 0 0 0 0 0 0 0 0 0 0 0 0 0 0 0 0 0 0 0 0 0 0 0
0 0 0 0 0 0 0 0 0 0 0 0 0 0 0 0 0 0 0 0 0 0 0 0 0 0 0 0 0 0 0 0 0 -0 -0 -0 -0 -0 0 -0 -0 0 0
Wind_Speed_500mb
89 86 83 79 81 79 77 74 72 73 66 63 60 55 47 30 23 20 33 35 41 42 40 38 39 40 39 41 43 43 43 45 54 62 63 63 68 69 68 71 70 70 70
88 90 86 85 86 87 84 78 81 74 64 58 51 40 37 24 32 38 41 45 44 44 42 43 44 45 45 48 51 50 51 53 60 68 68 69 75 74 75 77 75 73 74
83 84 87 89 89 86 84 77 67 53 46 48 43 41 34 31 34 37 46 48 46 45 45 48 51 51 51 54 56 57 61 61 64 72 78 77 79 79 82 81 80 76 77
75 78 75 73 71 67 52 55 43 37 38 41 32 20 31 31 40 44 42 44 45 47 51 56 56 57 58 60 63 65 66 67 69 75 82 87 85 84 81 84 86 83 83
30 25 24 22 21 26 38 40 44 43 26 16 23 30 32 37 40 38 41 45 47 51 56 58 59 60 62 66 69 70 70 72 74 80 88 89 91 86 84 82 87 86 88
40 45 49 48 51 53 47 33 22 26 32 37 32 29 32 34 34 36 41 46 50 54 57 61 65 65 67 69 71 73 74 77 81 83 90 90 96 89 86 84 87 85 79
71 64 54 44 37 34 29 28 31 27 22 20 21 24 29 32 34 37 42 48 54 58 63 65 67 67 68 72 74 77 78 78 80 84 92 96 97 93 86 84 89 90 89
53 46 37 27 23 20 18 19 18 17 16 15 18 22 28 33 39 44 46 54 58 61 64 66 69 69 69 72 76 82 84 85 86 85 90 94 92 93 92 93 93 92 93
33 24 22 19 20 14 9 9 11 12 13 19 25 29 34 34 36 39 46 53 60 63 64 66 69 72 70 70 78 86 91 93 92 92 92 91 87 76 71 85 90 87 91
32 31 25 20 14 11 7 2 7 13 18 21 23 26 29 32 36 41 48 56 63 67 69 71 71 71 71 71 79 83 93 96 95 94 93 87 76 78 72 101 96 86 79
38 32 28 25 22 19 17 13 12 16 20 24 27 29 32 35 37 42 45 51 58 64 67 69 69 67 67 68 71 79 88 86 83 85 88 91 92 87 85 83 90 89 83
33 30 29 26 25 22 21 20 21 22 24 25 26 26 28 31 34 36 40 46 52 62 68 72 75 75 77 77 77 81 82 77 82 85 88 91 94 97 90 83 82 80 78
31 34 35 34 34 33 31 31 30 30 32 36 38 40 41 45 49 53 57 63 67 72 78 80 77 77 81 84 85 78 77 79 77 82 87 88 88 94 91 83 81 79 76
37 38 38 36 35 34 34 36 38 39 42 45 49 53 55 57 60 64 70 74 75 78 82 88 89 83 70 69 77 80 79 79 74 74 78 77 80 81 85 85 78 75 71
38 38 37 37 37 38 39 42 43 43 45 48 50 52 57 61 62 65 63 64 66 73 83 88 90 89 86 76 73 71 70 71 79 80 77 74 85 85 83 83 77 70 69
38 40 42 41 40 40 40 38 41 46 47 49 52 54 56 60 63 68 76 80 82 85 90 90 91 89 87 86 83 83 75 71 75 70 78 75 78 83 83 80 73 69 63
42 41 40 42 45 47 49 52 52 47 46 49 52 56 61 67 68 71 77 80 79 81 80 81 83 86 88 86 86 81 78 74 70 72 72 78 71 74 72 74 70 63 56
45 46 48 50 51 52 52 53 55 58 63 62 58 63 64 67 72 76 78 81 86 84 81 80 82 81 82 82 82 77 81 87 85 81 65 73 67 64 64 66 63 55 46
42 44 46 46 47 45 46 47 47 51 54 62 69 70 74 77 80 81 83 86 86 85 82 81 79 81 83 83 81 80 77 82 80 64 62 62 58 60 58 56 52 49 40
36 35 35 37 41 46 48 53 58 60 65 72 76 79 81 81 88 90 88 86 85 82 81 78 76 76 78 80 84 85 86 83 74 58 56 62 60 53 49 46 47 38 26
41 44 47 50 53 57 60 63 64 68 71 75 78 82 68 81 90 88 87 87 87 86 87 86 85 82 79 80 82 84 82 76 70 48 52 56 50 44 41 39 37 25 17
47 51 54 56 59 60 63 66 68 72 77 81 86 88 90 91 90 88 84 80 79 78 78 79 80 79 77 76 79 78 74 67 58 45 49 46 37 31 30 30 22 15 12
50 51 54 57 61 65 68 71 75 80 84 87 90 92 92 90 86 80 76 73 73 75 75 75 75 73 69 70 68 63 62 55 46 40 44 34 24 21 23 18 14 14 12
52 57 61 65 68 70 73 77 80 83 85 87 88 89 90 88 82 75 69 68 70 72 73 72 69 66 65 61 58 51 47 45 39 26 15 11 11 17 14 17 18 18 17
55 59 63 67 71 74 77 81 84 86 87 87 87 87 86 81 74 68 66 68 70 73 72 69 66 62 58 53 47 43 42 35 28 22 14 8 8 13 19 22 24 24 22
57 63 67 70 73 76 79 82 84 86 89 90 89 86 83 78 70 65 64 66 68 68 66 63 60 56 51 45 38 36 37 31 23 16 9 9 16 24 27 30 31 32 32
Wind_Direction_500mb
214 216 219 220 223 223 225 227 229 233 231 218 218 203 194 213 232 244 274 233 233 247 252 260 264 270 277 279 277 277 276 276 276 280 281 286 288 290 291 291 292 293 297
218 219 221 222 222 220 222 226 226 221 216 211 198 187 195 232 246 253 225 248 249 251 257 261 268 274 276 277 279 282 284 282 280 282 286 287 288 292 292 291 291 293 294
220 224 224 222 221 219 217 226 218 209 197 180 185 200 216 233 224 229 251 249 254 260 265 271 273 276 278 280 282 284 283 282 282 283 288 290 290 292 291 290 291 293 293
212 218 217 216 214 209 205 202 193 179 185 179 182 190 212 209 244 255 253 256 262 269 272 273 276 279 282 283 283 283 283 283 284 285 287 289 291 294 291 289 292 294 292
192 186 181 184 167 149 132 136 144 139 160 217 191 205 243 251 252 255 260 266 270 272 274 277 280 281 282 282 281 282 284 283 284 285 286 288 290 289 288 293 291 293 290
121 115 111 109 117 118 124 125 148 174 171 198 221 236 247 255 258 262 267 270 272 276 279 281 281 283 282 284 284 284 283 283 283 285 286 284 288 287 289 287 287 287 289
95 94 95 101 113 129 147 164 176 196 205 216 234 251 261 268 273 277 279 282 281 280 281 283 284 287 289 289 288 285 284 283 283 284 283 283 286 287 287 282 281 283 284
106 111 114 122 133 135 161 179 185 194 215 241 257 269 279 287 286 283 284 282 283 285 287 290 292 291 290 292 294 291 290 289 286 285 284 289 290 288 282 280 277 280 283
94 90 89 88 94 109 124 156 194 230 264 280 289 296 297 299 299 294 292 291 290 292 291 291 293 295 298 296 294 292 292 290 292 291 290 287 285 279 271 265 264 276 282
67 64 64 70 78 87 87 58 300 297 301 307 309 312 315 312 306 302 299 296 297 299 299 301 301 302 301 297 293 293 292 294 292 289 285 282 279 276 261 263 269 273 278
61 62 61 59 56 52 43 27 4 348 340 333 331 330 325 317 315 314 312 311 312 311 311 310 309 309 305 301 296 290 289 292 289 286 284 284 284 282 277 271 270 272 274
59 59 58 53 46 37 26 16 6 357 351 347 347 349 346 339 333 325 318 314 312 311 311 308 305 302 298 295 294 294 294 289 282 281 280 279 280 279 281 282 277 274 271
52 52 52 47 44 39 33 29 22 14 6 359 352 346 340 337 333 326 321 317 314 313 311 311 312 307 307 303 301 301 302 296 291 281 278 276 276 278 276 273 273 269 264
52 50 49 46 42 36 28 22 13 6 0 354 348 343 337 332 328 324 324 322 319 316 314 312 313 311 305 301 306 311 309 305 296 285 280 280 279 274 272 271 269 270 261
50 47 40 34 30 25 19 17 15 9 4 358 352 347 343 342 340 338 336 333 328 324 321 321 320 319 318 314 310 306 301 303 297 294 290 281 278 280 274 271 268 264 256
40 36 31 25 21 18 16 17 17 13 8 5 2 1 357 352 347 342 338 333 331 329 328 325 323 321 319 317 314 310 307 301 292 298 283 279 277 279 275 267 263 259 253
33 30 25 22 18 16 12 9 8 15 17 9 359 356 354 350 346 341 340 339 337 333 332 328 325 323 321 320 317 315 313 310 305 295 299 276 282 281 274 270 264 254 247
31 29 27 25 24 22 18 14 9 6 5 5 7 2 0 355 353 350 346 342 343 344 340 334 331 327 324 321 318 316 307 306 307 302 299 281 279 281 277 270 261 245 244
25 24 22 18 16 16 17 18 17 16 10 6 1 358 355 353 351 346 345 346 345 342 339 335 332 328 325 322 319 316 313 310 314 305 302 285 292 287 277 265 249 238 244
39 38 38 36 33 30 24 19 15 10 5 2 358 353 352 348 348 350 350 348 347 343 340 336 332 327 327 325 324 322 319 318 313 306 299 297 296 285 271 256 234 237 244
42 38 35 31 25 21 17 13 7 3 360 357 354 354 350 344 350 349 348 347 345 342 339 337 334 331 328 326 327 324 321 318 316 312 298 300 293 280 263 239 227 226 234
36 32 27 22 18 13 10 6 1 358 356 355 353 352 350 348 345 342 341 341 340 339 339 337 335 333 332 332 329 326 324 321 320 317 297 302 291 266 245 218 210 209 209
27 22 18 14 10 6 3 360 358 356 354 351 349 347 345 343 342 342 340 340 339 340 341 341 338 335 336 336 332 332 328 324 318 307 302 297 274 236 202 193 184 173 144
18 13 10 7 3 360 357 355 353 351 349 347 345 343 342 341 340 340 340 339 340 342 345 343 343 343 339 338 338 339 342 343 345 341 323 295 192 178 170 160 146 128 126
11 9 6 3 1 358 356 354 352 350 346 343 341 341 340 340 340 340 340 340 341 342 343 346 346 345 343 341 343 348 350 353 4 19 41 105 156 141 138 130 122 117 107
9 7 4 1 358 355 353 351 348 346 344 342 340 339 340 341 340 338 337 337 338 339 342 345 346 347 345 345 349 0 4 13 16 26 51 101 119 123 122 119 114 105 93
Wind_Speed_850mb
89 86 83 79 81 79 77 74 72 73 66 63 60 55 47 30 23 20 33 35 41 42 40 38 39 40 39 41 43 43 43 45 54 62 63 63 68 69 68 71 70 70 70
88 90 86 85 86 87 84 78 81 74 64 58 51 40 37 24 32 38 41 45 44 44 42 43 44 45 45 48 51 50 51 53 60 68 68 69 75 74 75 77 75 73 74
83 84 87 89 89 86 84 77 67 53 46 48 43 41 34 31 34 37 46 48 46 45 45 48 51 51 51 54 56 57 61 61 64 72 78 77 79 79 82 81 80 76 77
75 78 75 73 71 67 52 55 43 37 38 41 32 20 31 31 40 44 42 44 45 47 51 56 56 57 58 60 63 65 66 67 69 75 82 87 85 84 81 84 86 83 83
30 25 24 22 21 26 38 40 44 43 26 16 23 30 32 37 40 38 41 45 47 51 56 58 59 60 62 66 69 70 70 72 74 80 88 89 91 86 84 82 87 86 88
40 45 49 48 51 53 47 33 22 26 32 37 32 29 32 34 34 36 41 46 50 54 57 61 65 65 67 69 71 73 74 77 81 83 90 90 96 89 86 84 87 85 79
71 64 54 44 37 34 29 28 31 27 22 20 21 24 29 32 34 37 42 48 54 58 63 65 67 67 68 72 74 77 78 78 80 84 92 96 97 93 86 84 89 90 89
53 46 37 27 23 20 18 19 18 17 16 15 18 22 28 33 39 44 46 54 58 61 64 66 69 69 69 72 76 82 84 85 86 85 90 94 92 93 92 93 93 92 93
33 24 22 19 20 14 9 9 11 12 13 19 25 29 34 34 36 39 46 53 60 63 64 66 69 72 70 70 78 86 91 93 92 92 92 91 87 76 71 85 90 87 91
32 31 25 20 14 11 7 2 7 13 18 21 23 26 29 32 36 41 48 56 63 67 69 71 71 71 71 71 79 83 93 96 95 94 93 87 76 78 72 101 96 86 79
38 32 28 25 22 19 17 13 12 16 20 24 27 29 32 35 37 42 45 51 58 64 67 69 69 67 67 68 71 79 88 86 83 85 88 91 92 87 85 83 90 89 83
33 30 29 26 25 22 21 20 21 22 24 25 26 26 28 31 34 36 40 46 52 62 68 72 75 75 77 77 77 81 82 77 82 85 88 91 94 97 90 83 82 80 78
31 34 35 34 34 33 31 31 30 30 32 36 38 40 41 45 49 53 57 63 67 72 78 80 77 77 81 84 85 78 77 79 77 82 87 88 88 94 91 83 81 79 76
37 38 38 36 35 34 34 36 38 39 42 45 49 53 55 57 60 64 70 74 75 78 82 88 89 83 70 69 77 80 79 79 74 74 78 77 80 81 85 85 78 75 71
38 38 37 37 37 38 39 42 43 43 45 48 50 52 57 61 62 65 63 64 66 73 83 88 90 89 86 76 73 71 70 71 79 80 77 74 85 85 83 83 77 70 69
38 40 42 41 40 40 40 38 41 46 47 49 52 54 56 60 63 68 76 80 82 85 90 90 91 89 87 86 83 83 75 71 75 70 78 75 78 83 83 80 73 69 63
42 41 40 42 45 47 49 52 52 47 46 49 52 56 61 67 68 71 77 80 79 81 80 81 83 86 88 86 86 81 78 74 70 72 72 78 71 74 72 74 70 63 56
45 46 48 50 51 52 52 53 55 58 63 62 58 63 64 67 72 76 78 81 86 84 81 80 82 81 82 82 82 77 81 87 85 81 65 73 67 64 64 66 63 55 46
42 44 46 46 47 45 46 47 47 51 54 62 69 70 74 77 80 81 83 86 86 85 82 81 79 81 83 83 81 80 77 82 80 64 62 62 58 60 58 56 52 49 40
36 35 35 37 41 46 48 53 58 60 65 72 76 79 81 81 88 90 88 86 85 82 81 78 76 76 78 80 84 85 86 83 74 58 56 62 60 53 49 46 47 38 26
41 44 47 50 53 57 60 63 64 68 71 75 78 82 68 81 90 88 87 87 87 86 87 86 85 82 79 80 82 84 82 76 70 48 52 56 50 44 41 39 37 25 17
47 51 54 56 59 60 63 66 68 72 77 81 86 88 90 91 90 88 84 80 79 78 78 79 80 79 77 76 79 78 74 67 58 45 49 46 37 31 30 30 22 15 12
50 51 54 57 61 65 68 71 75 80 84 87 90 92 92 90 86 80 76 73 73 75 75 75 75 73 69 70 68 63 62 55 46 40 44 34 24 21 23 18 14 14 12
52 57 61 65 68 70 73 77 80 83 85 87 88 89 90 88 82 75 69 68 70 72 73 72 69 66 65 61 58 51 47 45 39 26 15 11 11 17 14 17 18 18 17
55 59 63 67 71 74 77 81 84 86 87 87 87 87 86 81 74 68 66 68 70 73 72 69 66 62 58 53 47 43 42 35 28 22 14 8 8 13 19 22 24 24 22
57 63 67 70 73 76 79 82 84 86 89 90 89 86 83 78 70 65 64 66 68 68 66 63 60 56 51 45 38 36 37 31 23 16 9 9 16 24 27 30 31 32 32
Wind_Direction_850mb
214 216 219 220 223 223 225 227 229 233 231 218 218 203 194 213 232 244 274 233 233 247 252 260 264 270 277 279 277 277 276 276 276 280 281 286 288 290 291 291 292 293 297
218 219 221 222 222 220 222 226 226 221 216 211 198 187 195 232 246 253 225 248 249 251 257 261 268 274 276 277 279 282 284 282 280 282 286 287 288 292 292 291 291 293 294
220 224 224 222 221 219 217 226 218 209 197 180 185 200 216 233 224 229 251 249 254 260 265 271 273 276 278 280 282 284 283 282 282 283 288 290 290 292 291 290 291 293 293
212 218 217 216 214 209 205 202 193 179 185 179 182 190 212 209 244 255 253 256 262 269 272 273 276 279 282 283 283 283 283 283 284 285 287 289 291 294 291 289 292 294 292
192 186 181 184 167 149 132 136 144 139 160 217 191 205 243 251 252 255 260 266 270 272 274 277 280 281 282 282 281 282 284 283 284 285 286 288 290 289 288 293 291 293 290
121 115 111 109 117 118 124 125 148 174 171 198 221 236 247 255 258 262 267 270 272 276 279 281 281 283 282 284 284 284 283 283 283 285 286 284 288 287 289 287 287 287 289
95 94 95 101 113 129 147 164 176 196 205 216 234 251 261 268 273 277 279 282 281 280 281 283 284 287 289 289 288 285 284 283 283 284 283 283 286 287 287 282 281 283 284
106 111 114 122 133 135 161 179 185 194 215 241 257 269 279 287 286 283 284 282 283 285 287 290 292 291 290 292 294 291 290 289 286 285 284 289 290 288 282 280 277 280 283
94 90 89 88 94 109 124 156 194 230 264 280 289 296 297 299 299 294 292 291 290 292 291 291 293 295 298 296 294 292 292 290 292 291 290 287 285 279 271 265 264 276 282
67 64 64 70 78 87 87 58 300 297 301 307 309 312 315 312 306 302 299 296 297 299 299 301 301 302 301 297 293 293 292 294 292 289 285 282 279 276 261 263 269 273 278
61 62 61 59 56 52 43 27 4 348 340 333 331 330 325 317 315 314 312 311 312 311 311 310 309 309 305 301 296 290 289 292 289 286 284 284 284 282 277 271 270 272 274
59 59 58 53 46 37 26 16 6 357 351 347 347 349 346 339 333 325 318 314 312 311 311 308 305 302 298 295 294 294 294 289 282 281 280 279 280 279 281 282 277 274 271
52 52 52 47 44 39 33 29 22 14 6 359 352 346 340 337 333 326 321 317 314 313 311 311 312 307 307 303 301 301 302 296 291 281 278 276 276 278 276 273 273 269 264
52 50 49 46 42 36 28 22 13 6 0 354 348 343 337 332 328 324 324 322 319 316 314 312 313 311 305 301 306 311 309 305 296 285 280 280 279 274 272 271 269 270 261
50 47 40 34 30 25 19 17 15 9 4 358 352 347 343 342 340 338 336 333 328 324 321 321 320 319 318 314 310 306 301 303 297 294 290 281 278 280 274 271 268 264 256
40 36 31 25 21 18 16 17 17 13 8 5 2 1 357 352 347 342 338 333 331 329 328 325 323 321 319 317 314 310 307 301 292 298 283 279 277 279 275 267 263 259 253
33 30 25 22 18 16 12 9 8 15 17 9 359 356 354 350 346 341 340 339 337 333 332 328 325 323 321 320 317 315 313 310 305 295 299 276 282 281 274 270 264 254 247
31 29 27 25 24 22 18 14 9 6 5 5 7 2 0 355 353 350 346 342 343 344 340 334 331 327 324 321 318 316 307 306 307 302 299 281 279 281 277 270 261 245 244
25 24 22 18 16 16 17 18 17 16 10 6 1 358 355 353 351 346 345 346 345 342 339 335 332 328 325 322 319 316 313 310 314 305 302 285 292 287 277 265 249 238 244
39 38 38 36 33 30 24 19 15 10 5 2 358 353 352 348 348 350 350 348 347 343 340 336 332 327 327 325 324 322 319 318 313 306 299 297 296 285 271 256 234 237 244
42 38 35 31 25 21 17 13 7 3 360 357 354 354 350 344 350 349 348 347 345 342 339 337 334 331 328 326 327 324 321 318 316 312 298 300 293 280 263 239 227 226 234
36 32 27 22 18 13 10 6 1 358 356 355 353 352 350 348 345 342 341 341 340 339 339 337 335 333 332 332 329 326 324 321 320 317 297 302 291 266 245 218 210 209 209
27 22 18 14 10 6 3 360 358 356 354 351 349 347 345 343 342 342 340 340 339 340 341 341 338 335 336 336 332 332 328 324 318 307 302 297 274 236 202 193 184 173 144
18 13 10 7 3 360 357 355 353 351 349 347 345 343 342 341 340 340 340 339 340 342 345 343 343 343 339 338 338 339 342 343 345 341 323 295 192 178 170 160 146 128 126
11 9 6 3 1 358 356 354 352 350 346 343 341 341 340 340 340 340 340 340 341 342 343 346 346 345 343 341 343 348 350 353 4 19 41 105 156 141 138 130 122 117 107
9 7 4 1 358 355 353 351 348 346 344 342 340 339 340 341 340 338 337 337 338 339 342 345 346 347 345 345 349 0 4 13 16 26 51 101 119 123 122 119 114 105 93